Sarasota, FL

9:18 PM EST on December 08, 2019 (GMT -0500)
Sarasota-bradenton

Weather History for KSRQ - October, 2019

Change the Weather History Date:

Tuesday, October 15, 2019

  Actual Average Record
Temperature  
Mean Temperature 82 °F 77 °F  
Max Temperature 90 °F 85 °F 96 °F (1925)
Min Temperature 73 °F 68 °F 47 °F (1977)
Degree Days  
Heating Degree Days 0 0  
Month to date heating degree days 0  
Since 1 July heating degree days 0  
Cooling Degree Days 16 12  
Month to date cooling degree days 200  
Year to date cooling degree days 2989  
Growing Degree Days 32 (Base 50)    
Moisture  
Dew Point 70 °F    
Average Humidity 70    
Maximum Humidity 87    
Minimum Humidity 48    
Precipitation  
Precipitation 0.00 in 0.10 in 1.20 in (1917)
Month to date precipitation 1.79  
Year to date precipitation 47.22  
Sea Level Pressure  
Sea Level Pressure 30.00 in    
Wind  
Wind Speed 6 mph ()    
Max Wind Speed 12 mph    
Max Gust Speed -    
Visibility 10.0 miles    
Events      
T = Trace of Precipitation, MM = Missing Value Source: Averaged Metar Reports

Daily Weather History Graph

Daily Weather History Graph

Search for Another Location

Airport or City:

Astronomy

Oct. 15, 2019 Rise Set
Actual Time 7:30 AM EDT 7:01 PM EDT
Civil Twilight 7:06 AM EDT 7:25 PM EDT
Nautical Twilight 6:39 AM EDT 7:52 PM EDT
Astronomical Twilight 6:12 AM EDT 8:19 PM EDT
Moon 8:27 PM EDT (10/15) 8:55 AM EDT (10/15)
Length of Visible Light 12h 18m
Length of Day
11h 31m
Full, 97% of the Moon is Illuminated
Oct 15
Full
Oct 21
Last Quarter
Oct 27
New
Nov 4
First Quarter
Nov 12
Full

Hourly Weather History & Observations

Time (EDT) Temp. Heat Index Dew Point Humidity Pressure Visibility Wind Dir Wind Speed Gust Speed Precip Events Conditions
12:53 AM 77.0 °F - 70.0 °F 79% 30.06 in 10.0 mi East 8.1 mph - N/A   Clear
1:53 AM 77.0 °F - 70.0 °F 79% 30.04 in 10.0 mi ESE 9.2 mph - N/A   Clear
2:53 AM 75.9 °F - 70.0 °F 82% 30.04 in 10.0 mi ESE 6.9 mph - N/A   Clear
3:53 AM 75.9 °F - 70.0 °F 82% 30.02 in 10.0 mi SE 9.2 mph - N/A   Clear
4:53 AM 75.9 °F - 70.0 °F 82% 30.02 in 10.0 mi SE 5.8 mph - N/A   Clear
5:53 AM 75.0 °F - 70.0 °F 84% 30.02 in 10.0 mi ESE 5.8 mph - N/A   Clear
6:53 AM 75.0 °F - 70.0 °F 84% 30.03 in 10.0 mi ESE 5.8 mph - N/A   Clear
7:53 AM 73.9 °F - 70.0 °F 87% 30.03 in 10.0 mi ESE 4.6 mph - N/A   Clear
8:53 AM 79.0 °F - 70.0 °F 74% 30.04 in 10.0 mi SE 5.8 mph - N/A   Clear
9:53 AM 82.0 °F 85.9 °F 70.0 °F 67% 30.04 in 10.0 mi SE 6.9 mph - N/A   Clear
10:53 AM 84.9 °F 88.8 °F 69.1 °F 59% 30.04 in 10.0 mi SE 10.4 mph - N/A   Clear
11:53 AM 87.1 °F 91.3 °F 69.1 °F 55% 30.03 in 10.0 mi SE 10.4 mph - N/A   Clear
12:53 PM 90.0 °F 93.6 °F 68.0 °F 48% 30.01 in 10.0 mi Variable 5.8 mph - N/A   Clear
1:53 PM 90.0 °F 96.4 °F 71.1 °F 54% 29.99 in 10.0 mi WSW 9.2 mph - N/A   Clear
2:53 PM 89.1 °F 94.1 °F 70.0 °F 53% 29.97 in 10.0 mi West 9.2 mph - N/A   Scattered Clouds
3:53 PM 88.0 °F 93.8 °F 71.1 °F 57% 29.94 in 10.0 mi SW 11.5 mph - N/A   Scattered Clouds
4:53 PM 86.0 °F 90.7 °F 70.0 °F 59% 29.94 in 10.0 mi WSW 9.2 mph - N/A   Clear
5:53 PM 84.9 °F 88.8 °F 69.1 °F 59% 29.93 in 10.0 mi WSW 6.9 mph - N/A   Clear
6:53 PM 82.9 °F 87.5 °F 71.1 °F 67% 29.94 in 10.0 mi WSW 4.6 mph - N/A   Clear
7:53 PM 82.0 °F 86.7 °F 72.0 °F 71% 29.95 in 10.0 mi West 3.5 mph - N/A   Clear
8:53 PM 82.0 °F 87.4 °F 73.0 °F 74% 29.96 in 10.0 mi WSW 3.5 mph - N/A   Clear
9:53 PM 81.0 °F 85.2 °F 72.0 °F 74% 29.96 in 10.0 mi SE 3.5 mph - N/A   Clear
10:53 PM 79.0 °F - 72.0 °F 79% 29.97 in 10.0 mi SE 5.8 mph - N/A   Clear
11:53 PM 78.1 °F - 72.0 °F 81% 29.96 in 10.0 mi ESE 3.5 mph - N/A   Clear